Tracking 19795 objects as of 18-Jul-2019
HD Live streaming from Space Station
objects crossing your sky now

THORAD AGENA D DEB

Track THORAD AGENA D DEB now!
10-day predictions


NORAD ID: 4970
Int'l Code: 1970-025GQ
Perigee: 1,022.1 km
Apogee: 1,079.8 km
Inclination: 99.8 °
Period: 106.1 minutes
Semi major axis: 7421 km
RCS: 0.025 m2 (small)
Launch date: April 8, 1970
Source: United States (US)
Launch site: AIR FORCE WESTERN TEST RANGE (AFWTR)

Note: This is SATELLITE DEBRIS
aabbcc
Your satellite tracking list
Your tracking list is empty




NASA's NSSDC Master Catalog

Two Line Element Set (TLE):
1  4970U 70025GQ  19199.33345385  .00000053  00000-0  13538-3 0  9998
2  4970  99.7584 122.8432 0038818  79.9346  42.6758 13.57766977432078
Source of the keplerian elements: AFSPC